Location: Morine Place
(33.9195°N, 107.5900°W)
Time: 20:56:32
(UTC+00:00)

Hubble Space Telescope - Visible Passes

Search period start: 13 November 2019 00:00
Search period end: 23 November 2019 00:00
Orbit: 536 x 540 km, 28.5° (Epoch: 13 November)

Date Brightness Start Highest point End Pass type
(mag) Time Alt. Az. Time Alt. Az. Time Alt. Az.
17 Nov 3.6 02:34:40 10° SW 02:35:11 12° SSW 02:35:11 12° SSW visible
18 Nov 3.1 02:23:48 10° SW 02:25:16 18° SSW 02:25:16 18° SSW visible
19 Nov 3.1 00:34:08 10° S 00:35:59 13° SSE 00:37:49 10° SE visible
19 Nov 2.6 02:13:01 10° SW 02:15:19 24° SSW 02:15:19 24° SSW visible
20 Nov 2.1 02:02:16 10° SW 02:05:21 31° S 02:05:21 31° S visible
21 Nov 1.8 01:51:34 10° WSW 01:55:20 35° S 01:55:23 35° S visible
22 Nov 1.7 01:40:53 10° WSW 01:44:42 37° S 01:45:24 34° SSE visible
